User: anonymous   Login
Location: Caualo
(45.5667°N, 10.8667°E)
Time: 14:11:18
(UTC+00:00)
Language:

In-Cosmos 22 Rocket - Orbit

View from above orbital plane
View from above orbital plane
View from above satellite
View from above satellite

Ground track
Ground track

The orbit data is extracted from the following two-line orbital elements,

1 12646U 81075B   21019.85810453 -.00000001  00000-0 -68034-5 0  9996
2 12646  81.2249  59.0128 0067327 200.7081 332.4602 14.15906933 37275
Epoch (UTC): 19 January 2021 20:35:40
Eccentricity: 0.0067327
inclination: 81.2249°
perigee height: 790 km
apogee height: 888 km
right ascension of ascending node: 59.0128°
argument of perigee: 200.7081°
revolutions per day: 14.15906933
mean anomaly at epoch: 332.4602°
orbit number at epoch: 3727

The dashed part of the orbit path shows where the satellite is in the earth's shadow,  

DLR